TimeMST,TemperatureF,Dew PointF,Humidity,Sea Level PressureIn,VisibilityMPH,Wind Direction,Wind SpeedMPH,Gust SpeedMPH,PrecipitationIn,Events,Conditions,WindDirDegrees,DateUTC
12:45 AM,12.2,10.4,92,30.21,0.2,Calm,Calm,-,N/A,Fog,Light Freezing Fog,0,2013-01-18 07:45:00
12:55 AM,12.9,10.9,92,30.35,0.2,Calm,Calm,-,N/A,Fog,Light Freezing Fog,0,2013-01-18 07:55:00
1:02 AM,14.0,10.4,86,30.21,4.0,Calm,Calm,-,N/A,,Clear,0,2013-01-18 08:02:00
1:29 AM,12.2,8.6,85,30.21,2.5,Calm,Calm,-,N/A,,Partly Cloudy,0,2013-01-18 08:29:00
1:39 AM,10.4,8.6,92,30.21,4.0,Calm,Calm,-,N/A,,Mostly Cloudy,0,2013-01-18 08:39:00
1:55 AM,12.0,10.0,92,30.35,3.0,Calm,Calm,-,N/A,,Mostly Cloudy,0,2013-01-18 08:55:00
2:52 AM,10.4,8.6,92,30.19,7.0,Calm,Calm,-,N/A,,Scattered Clouds,0,2013-01-18 09:52:00
2:55 AM,12.0,9.0,88,30.32,7.0,Calm,Calm,-,N/A,,Partly Cloudy,0,2013-01-18 09:55:00
3:27 AM,14.0,10.4,86,30.20,6.0,Calm,Calm,-,N/A,,Mostly Cloudy,0,2013-01-18 10:27:00
3:44 AM,12.2,10.4,92,30.20,4.0,Calm,Calm,-,N/A,,Overcast,0,2013-01-18 10:44:00
3:55 AM,12.9,10.0,88,30.32,5.0,Calm,Calm,-,N/A,,Overcast,0,2013-01-18 10:55:00
4:55 AM,12.0,9.0,88,30.31,5.0,Calm,Calm,-,N/A,,Mostly Cloudy,0,2013-01-18 11:55:00
5:12 AM,10.4,8.6,92,30.16,2.0,Calm,Calm,-,N/A,,Overcast,0,2013-01-18 12:12:00
5:23 AM,12.2,8.6,85,30.15,8.0,Calm,Calm,-,N/A,,Overcast,0,2013-01-18 12:23:00
5:32 AM,12.2,10.4,92,30.16,1.2,Calm,Calm,-,N/A,,Overcast,0,2013-01-18 12:32:00
5:40 AM,10.4,10.4,100,30.15,0.5,Calm,Calm,-,N/A,Fog,Light Freezing Fog,0,2013-01-18 12:40:00
5:55 AM,10.9,8.1,88,30.29,0.8,Calm,Calm,-,N/A,,Mist,0,2013-01-18 12:55:00
6:15 AM,12.2,10.4,92,30.14,1.5,Calm,Calm,-,N/A,,Overcast,0,2013-01-18 13:15:00
6:19 AM,12.2,8.6,85,30.14,3.0,Calm,Calm,-,N/A,,Overcast,0,2013-01-18 13:19:00
6:32 AM,10.4,8.6,92,30.13,1.2,Calm,Calm,-,N/A,,Overcast,0,2013-01-18 13:32:00
6:34 AM,12.2,8.6,85,30.13,0.8,Calm,Calm,-,N/A,,Mist,0,2013-01-18 13:34:00
6:55 AM,12.0,10.0,92,30.27,0.8,WNW,4.6,-,N/A,,Mist,300,2013-01-18 13:55:00
7:03 AM,12.2,8.6,85,30.13,1.5,Calm,Calm,-,N/A,,Overcast,0,2013-01-18 14:03:00
7:06 AM,12.2,8.6,85,30.13,3.0,West,3.5,-,N/A,,Overcast,280,2013-01-18 14:06:00
7:16 AM,12.2,10.4,92,30.13,1.5,WNW,4.6,-,N/A,,Overcast,290,2013-01-18 14:16:00
7:19 AM,12.2,10.4,92,30.13,0.8,Calm,Calm,-,N/A,,Mist,0,2013-01-18 14:19:00
7:38 AM,12.2,10.4,92,30.12,1.2,Calm,Calm,-,N/A,,Mostly Cloudy,0,2013-01-18 14:38:00
7:50 AM,12.2,10.4,92,30.12,1.5,Calm,Calm,-,N/A,,Scattered Clouds,0,2013-01-18 14:50:00
7:55 AM,12.0,10.0,92,30.26,1.8,Calm,Calm,-,N/A,,Partly Cloudy,0,2013-01-18 14:55:00
8:09 AM,12.2,10.4,92,30.12,3.0,Calm,Calm,-,N/A,,Clear,0,2013-01-18 15:09:00
8:55 AM,15.1,12.0,88,30.26,5.0,Calm,Calm,-,N/A,,Mostly Cloudy,0,2013-01-18 15:55:00
9:55 AM,17.1,15.1,92,30.27,5.0,Calm,Calm,-,N/A,,Scattered Clouds,0,2013-01-18 16:55:00
10:55 AM,21.9,19.9,92,30.27,3.0,Calm,Calm,-,N/A,,Clear,0,2013-01-18 17:55:00
11:55 AM,24.1,21.0,88,30.26,4.0,Calm,Calm,-,N/A,,Clear,0,2013-01-18 18:55:00
12:55 PM,25.0,23.0,92,30.25,5.0,Calm,Calm,-,N/A,,Clear,0,2013-01-18 19:55:00
1:55 PM,25.0,23.0,92,30.25,5.0,Calm,Calm,-,N/A,,Partly Cloudy,0,2013-01-18 20:55:00
2:55 PM,27.0,25.0,92,30.22,4.0,Calm,Calm,-,N/A,,Overcast,0,2013-01-18 21:55:00
3:55 PM,30.9,26.1,82,30.22,5.0,Calm,Calm,-,N/A,,Haze,0,2013-01-18 22:55:00
4:55 PM,30.0,27.0,88,30.23,4.0,Calm,Calm,-,N/A,,Mostly Cloudy,0,2013-01-18 23:55:00
5:55 PM,21.9,21.0,96,30.25,10.0,WSW,4.6,-,N/A,,Clear,250,2013-01-19 00:55:00
6:55 PM,17.1,16.0,96,30.28,10.0,SW,3.5,-,N/A,,Clear,220,2013-01-19 01:55:00
7:55 PM,17.1,15.1,92,30.30,10.0,West,3.5,-,N/A,,Clear,280,2013-01-19 02:55:00
8:55 PM,15.1,12.9,91,30.32,10.0,Calm,Calm,-,N/A,,Clear,0,2013-01-19 03:55:00
9:55 PM,10.9,9.0,92,30.32,10.0,Calm,Calm,-,N/A,,Clear,0,2013-01-19 04:55:00
10:55 PM,14.0,12.0,92,30.33,9.0,Calm,Calm,-,N/A,,Clear,0,2013-01-19 05:55:00
11:55 PM,10.0,8.1,92,30.35,9.0,Calm,Calm,-,N/A,,Clear,0,2013-01-19 06:55:00